[[{"header":{"parameterUnit":"m.s-1","parameterCategory":1,"la1":30.2991,"la2":30.254,"lo1":-89.0895,"lo2":-89.0444,"dy":0.0017,"dx":0.0017,"nx":28,"ny":28,"refTime":"2025-05-20T03:00:00:Z","depth":0,"parameterNumber":2,"parameterNumberName":"U-component_of_WINDS"},"data":[0,0,0,0,0,0,0,0,0,0,0,0,0,0,0,0,0,0,0,0,0,0,0,0,0,0,0,0,0,0,0,0,0,0,0,0,0,0,0,0,0,0,0,0,0,0,0,0,0,0,0,0,0,0,0,0,0,0,4.3882,4.3883,0,4.3935,4.3936,4.3936,4.3854,4.3852,4.3849,4.3846,4.3903,4.3907,4.3911,0,0,0,0,0,0,0,0,0,0,0,0,0,4.3712,4.3716,4.3882,4.3883,4.3884,4.3935,4.3936,4.3936,4.3855,4.3851,4.3848,4.3845,4.3901,4.3906,4.3911,0,0,0,0,0,0,0,0,0,0,0,0,0,4.3778,4.3717,4.3882,4.3849,4.3847,4.3935,4.3936,4.3937,4.3856,4.3851,4.3847,4.3843,4.39,4.3906,4.3912,4.4036,0,0,4.3931,4.3934,0,0,0,0,0,0,0,0,4.3774,4.3784,4.3853,4.3851,4.3849,4.3884,4.3896,4.397,4.3857,4.3852,4.3846,4.3841,4.39,4.3906,4.3925,4.4039,4.4041,4.3932,4.3935,4.3938,4.394,0,0,0,0,0,0,0,4.377,4.3781,4.3903,4.3854,4.3852,4.3832,4.3837,4.391,4.39,4.3852,4.3847,4.3854,4.3898,4.392,4.3926,4.4042,4.3931,4.3937,4.3941,4.3943,4.4257,4.4262,0,0,0,0,0,0,4.3769,4.3778,4.3901,4.3905,4.38,4.3838,4.3844,4.3877,4.3899,4.3898,4.3857,4.385,4.3911,4.3919,4.3928,4.4072,4.3938,4.3944,4.3947,4.4253,4.4258,4.4263,0,0,0,0,0,0,4.3765,4.3781,4.3899,4.384,4.3853,4.3846,4.3884,4.388,4.3901,4.3902,4.39,4.3881,4.3908,4.3919,4.4009,4.4073,4.3947,4.3952,4.4247,4.4254,4.4261,4.4364,0,0,0,0,0,0,4.3761,4.378,4.3827,4.3841,4.3857,4.398,4.3888,4.3884,4.3912,4.3903,4.3924,4.3923,4.3905,4.4,4.4015,4.408,4.3957,4.4241,4.4251,4.4259,4.4355,4.4374,4.439,0,0,0,0,0,4.3755,4.3855,4.3829,4.3845,4.3915,4.3983,4.3992,4.3969,4.3918,4.3964,4.3965,4.3923,4.4064,4.401,4.4026,4.4094,4.4237,4.4248,4.4258,4.4347,4.437,4.4389,0,0,0,0,0,0,4.3848,4.3856,4.3828,4.3935,4.3959,4.3969,4.4028,4.3994,4.4034,4.4023,4.3993,4.3999,4.4095,4.4104,4.4043,4.4214,4.4142,4.4156,4.4204,4.4226,4.4243,4.4238,4.3962,0,0,0,0,0,4.3881,4.3936,4.394,4.4034,4.4047,4.4036,4.4065,4.4044,4.4068,4.4078,4.4085,4.4111,4.416,4.4194,4.424,4.4356,4.4359,4.441,4.4428,4.4442,4.4454,4.4514,4.4537,4.4297,4.4297,4.4297,0,0,4.395,4.3961,4.3997,4.4053,4.4069,4.4126,4.4045,4.4109,4.4151,4.4088,4.4172,4.4179,4.4205,4.4308,4.4354,4.4318,4.4521,4.4455,4.4467,4.4471,4.4527,4.455,4.457,4.4304,4.4303,4.4302,0,0,4.4104,4.4118,4.4197,4.4215,4.424,4.4231,4.4251,4.4266,4.4267,4.4351,4.4305,4.4355,4.4442,4.4462,4.4484,4.4645,4.4607,4.4661,4.4751,4.481,4.4829,4.4846,4.4901,4.4922,4.4673,4.4673,4.4674,0,4.4186,4.4269,4.4242,4.4309,4.4334,4.4279,4.4359,4.4378,4.4417,4.4436,4.4395,4.4502,4.4516,4.4622,4.4661,4.4682,4.4702,4.4657,4.4829,4.4845,4.486,4.4913,4.4934,4.468,4.4679,4.4678,4.4678,0,4.4369,4.4427,4.4488,4.4526,4.4558,4.4631,4.4615,4.4651,4.4628,4.4624,4.471,4.4725,4.4773,4.4797,4.4776,4.49,4.4877,4.4833,4.476,4.4889,4.4938,4.4959,4.4689,4.4686,4.4685,4.4683,0,0,4.4582,4.4603,4.4626,4.4641,4.4665,4.471,4.478,4.4825,4.4856,4.4886,4.4943,4.5018,4.4977,4.5002,4.4983,4.5035,4.5159,4.4985,4.4985,4.5015,4.5295,4.5326,4.535,4.5135,4.5139,4.5142,4.5292,0,4.4733,4.4853,4.4831,4.4948,4.5001,4.495,4.5011,4.5032,4.503,4.5075,4.5074,4.5126,4.507,4.5084,4.5133,4.5134,4.5215,4.5123,4.5188,4.519,4.5181,4.5376,4.5409,4.555,4.5311,4.5314,4.5317,0,4.4926,4.4961,4.5083,4.5096,4.5118,4.5173,4.5212,4.5256,4.5279,4.5274,4.5301,4.5272,4.5342,4.527,4.5365,4.5303,4.5328,4.5333,4.5338,4.5341,4.526,4.5383,4.5595,4.5615,4.5347,4.5345,4.5342,0,4.5067,4.5145,4.5227,4.5243,4.5261,4.5301,4.5311,4.5329,4.5357,4.5392,4.541,4.5453,4.5476,4.551,4.5493,4.5442,4.5591,4.5518,4.5589,4.5589,4.5621,4.5619,4.5838,4.5641,4.5641,4.564,4.564,0,4.5237,4.5313,4.529,4.5341,4.5425,4.5398,4.5482,4.5486,4.5503,4.5553,4.5513,4.5561,4.5537,4.5584,4.5571,4.5651,4.5663,4.566,4.5656,4.5663,4.5663,4.5678,4.5667,4.5646,4.5645,4.5643,4.5643,0,4.5408,4.5395,4.5482,4.5492,4.5496,4.5557,4.5566,4.5613,4.5609,4.5673,4.5687,4.5679,4.5732,4.5719,4.5777,4.5769,4.5869,4.5853,4.5861,4.5856,4.5927,4.592,4.6162,4.6192,4.5977,4.5979,4.5981,0,4.5516,4.5573,4.5589,4.562,4.5632,4.5682,4.571,4.5687,4.5718,4.5747,4.5791,4.584,4.5878,4.5965,4.5965,4.6009,4.5993,4.6075,4.5999,4.6004,4.5992,4.5987,4.5992,4.6089,4.6091,4.6093,4.6095,0,4.5709,4.57,4.5742,4.5782,4.5816,4.5846,4.5873,4.59,4.5879,4.5916,4.5969,4.5998,4.6056,4.6105,4.6146,4.6156,4.6122,4.6119,4.6137,4.6144,4.6145,4.6144,4.59,4.6113,4.6111,4.611,4.6109,4.6108,4.5851,4.5898,4.5917,4.5964,4.5981,4.6007,4.6051,4.6052,4.6095,4.614,4.6124,4.6184,4.6205,4.6255,4.6271,4.6318,4.6287,4.6314,4.632,4.6327,4.6334,4.614,4.6325,4.6325,4.6324,4.6324,4.6323,0,4.604,4.6049,4.6093,4.613,4.6168,4.6132,4.616,4.6193,4.6246,4.6269,4.6306,4.6366,4.6413,4.6417,4.6462,4.6498,4.6484,4.6511,4.6507,4.6509,4.6361,4.6339,4.6521,4.6521,4.6521,4.6521,4.6521,4.6521,4.6142,4.622,4.6214,4.63,4.6309,4.6366,4.6385,4.6408,4.6425,4.6494,4.6532,4.6534,4.6549,4.6594,4.6635,4.6635,4.6652,4.6685,4.6679,4.654,4.652,4.6501,4.6481,4.6689,4.669,4.6823,4.6824,4.6825]},{"header":{"parameterUnit":"m.s-1","parameterCategory":1,"la1":30.2991,"la2":30.254,"lo1":-89.0895,"lo2":-89.0444,"dy":0.0017,"dx":0.0017,"nx":28,"ny":28,"refTime":"2025-05-20T03:00:00:Z","depth":0,"parameterNumber":3,"parameterNumberName":"V-component_of_WINDS"},"data":[0,0,0,0,0,0,0,0,0,0,0,0,0,0,0,0,0,0,0,0,0,0,0,0,0,0,0,0,0,0,0,0,0,0,0,0,0,0,0,0,0,0,0,0,0,0,0,0,0,0,0,0,0,0,0,0,0,0,5.4554,5.4556,0,5.4655,5.4656,5.4657,5.4614,5.4612,5.4609,5.4607,5.4707,5.4712,5.4716,0,0,0,0,0,0,0,0,0,0,0,0,0,5.4322,5.4326,5.4554,5.4556,5.4557,5.4655,5.4656,5.4658,5.4615,5.4612,5.4609,5.4606,5.4705,5.4711,5.4717,0,0,0,0,0,0,0,0,0,0,0,0,0,5.4423,5.4328,5.4554,5.4547,5.4548,5.4655,5.4656,5.4658,5.4615,5.4612,5.4608,5.4605,5.4703,5.471,5.4718,5.4836,0,0,5.474,5.4743,0,0,0,0,0,0,0,0,5.4417,5.4431,5.4547,5.4548,5.4549,5.4618,5.4611,5.4718,5.4616,5.459,5.4607,5.4603,5.468,5.4689,5.4716,5.4841,5.4845,5.4741,5.4745,5.4748,5.4751,0,0,0,0,0,0,0,5.441,5.4427,5.4594,5.4549,5.455,5.4538,5.4549,5.4631,5.4654,5.4592,5.4589,5.4601,5.468,5.4709,5.4718,5.4846,5.4741,5.4747,5.4752,5.4755,5.5073,5.5077,0,0,0,0,0,0,5.4403,5.4421,5.4591,5.4597,5.4473,5.4545,5.4557,5.46,5.4653,5.4658,5.4604,5.4599,5.4698,5.4709,5.4721,5.4863,5.4748,5.4755,5.476,5.5069,5.5074,5.5078,0,0,0,0,0,0,5.4399,5.4419,5.4587,5.4508,5.4529,5.4553,5.4602,5.4604,5.4633,5.4663,5.4666,5.463,5.4696,5.4711,5.4808,5.4866,5.4759,5.4765,5.5064,5.507,5.5076,5.5148,0,0,0,0,0,0,5.4392,5.4418,5.4464,5.451,5.4533,5.4673,5.4605,5.4608,5.4646,5.464,5.4688,5.4692,5.4694,5.4797,5.4815,5.4874,5.4771,5.5059,5.5067,5.5074,5.5141,5.5156,5.5169,0,0,0,0,0,5.4384,5.4479,5.4466,5.4487,5.4591,5.4677,5.469,5.4691,5.4651,5.4697,5.4716,5.4691,5.4857,5.4808,5.4828,5.489,5.5055,5.5065,5.5074,5.5135,5.5153,5.5169,0,0,0,0,0,0,5.4438,5.4485,5.4471,5.4584,5.4627,5.4669,5.4727,5.4711,5.4765,5.4757,5.4755,5.4766,5.4866,5.4887,5.4832,5.5007,5.495,5.4963,5.4989,5.5007,5.5021,5.5014,5.4777,0,0,0,0,0,5.4463,5.4529,5.4566,5.4663,5.4685,5.4703,5.474,5.4737,5.4781,5.4798,5.4824,5.4867,5.4928,5.4969,5.5027,5.5144,5.5153,5.5196,5.521,5.5222,5.5234,5.5297,5.5316,5.5108,5.5108,5.5108,0,0,5.4515,5.4549,5.4591,5.4674,5.4707,5.4775,5.4718,5.4792,5.4842,5.4809,5.4903,5.4923,5.497,5.5078,5.5126,5.5099,5.5293,5.5234,5.5243,5.5248,5.5308,5.5328,5.5345,5.5114,5.5113,5.5112,0,0,5.4645,5.4678,5.4762,5.4796,5.4847,5.4858,5.4878,5.4924,5.4936,5.5031,5.5007,5.5066,5.5173,5.5207,5.5239,5.5383,5.5361,5.5401,5.5475,5.5537,5.5553,5.5568,5.5619,5.5638,5.5413,5.5413,5.5413,0,5.4704,5.4806,5.4807,5.4883,5.492,5.4895,5.4979,5.5012,5.5079,5.5104,5.5073,5.5206,5.5236,5.5351,5.5386,5.5413,5.5435,5.5396,5.5551,5.5566,5.5579,5.5628,5.5647,5.5418,5.5417,5.5417,5.5416,0,5.4875,5.4946,5.5008,5.5075,5.5118,5.5198,5.521,5.5255,5.5248,5.5263,5.5359,5.5394,5.5459,5.5486,5.548,5.5601,5.5582,5.5551,5.5493,5.5604,5.565,5.5668,5.5424,5.5423,5.5421,5.542,0,0,5.5041,5.5108,5.5131,5.5161,5.5215,5.527,5.5348,5.5413,5.5451,5.5498,5.5563,5.5654,5.5626,5.5662,5.566,5.5714,5.5826,5.5676,5.5677,5.5703,5.5961,5.5984,5.6005,5.5812,5.5815,5.5818,5.5957,0,5.5175,5.5315,5.5318,5.5445,5.551,5.5487,5.5556,5.5596,5.5611,5.5668,5.5685,5.575,5.5708,5.5729,5.5782,5.5801,5.5877,5.5791,5.5872,5.5875,5.5861,5.6029,5.6054,5.6183,5.5975,5.5978,5.598,0,5.535,5.5405,5.5539,5.5584,5.5612,5.5673,5.5733,5.5788,5.5833,5.5841,5.5881,5.5871,5.595,5.5891,5.5999,5.5941,5.5974,5.5988,5.5993,5.6001,5.5934,5.6041,5.6224,5.6243,5.6008,5.6006,5.6004,0,5.5458,5.5564,5.5658,5.5685,5.574,5.5784,5.5809,5.585,5.5889,5.5941,5.5966,5.6027,5.606,5.6106,5.6112,5.6068,5.6221,5.6162,5.6229,5.6229,5.6262,5.626,5.6453,5.6284,5.6284,5.6283,5.6283,0,5.5608,5.569,5.5708,5.5766,5.5858,5.586,5.5951,5.5972,5.6009,5.607,5.6053,5.611,5.6115,5.6173,5.6178,5.6268,5.6282,5.629,5.629,5.6292,5.6291,5.6313,5.6305,5.6288,5.6287,5.6286,5.6285,0,5.5743,5.5758,5.5859,5.5904,5.5917,5.5983,5.602,5.6075,5.6089,5.6166,5.6184,5.6206,5.6275,5.6285,5.6365,5.6368,5.6475,5.6466,5.6461,5.6459,5.6526,5.652,5.674,5.6769,5.6581,5.6583,5.6584,0,5.5837,5.5901,5.5953,5.5993,5.6021,5.6085,5.6125,5.613,5.6172,5.6229,5.6277,5.6344,5.6397,5.6507,5.6529,5.659,5.6583,5.6656,5.6592,5.6591,5.6584,5.658,5.6586,5.6668,5.667,5.6672,5.6673,0,5.6003,5.6008,5.6067,5.6129,5.6178,5.6227,5.6273,5.6306,5.6317,5.6365,5.6436,5.6477,5.656,5.6626,5.6687,5.6711,5.6694,5.6693,5.6712,5.6714,5.6708,5.6712,5.6494,5.6688,5.6686,5.6685,5.6684,5.6684,5.6121,5.6176,5.6222,5.6288,5.6324,5.6368,5.6422,5.6443,5.6502,5.657,5.6569,5.6646,5.6689,5.6769,5.6798,5.6858,5.6834,5.6861,5.6868,5.6875,5.6881,5.6699,5.6869,5.6868,5.6868,5.6868,5.6867,0,5.6285,5.6314,5.6375,5.6441,5.6493,5.6474,5.6524,5.6569,5.6638,5.668,5.6734,5.6815,5.6879,5.6907,5.697,5.7013,5.7007,5.7029,5.7026,5.7032,5.6899,5.6876,5.7033,5.7033,5.7033,5.7033,5.7033,5.7033,5.6377,5.647,5.648,5.6591,5.6618,5.6695,5.6725,5.6765,5.6799,5.6891,5.6945,5.6963,5.6999,5.7065,5.7123,5.713,5.7154,5.718,5.7183,5.7058,5.7041,5.7025,5.7004,5.7185,5.7186,5.7311,5.7312,5.7313]}]]